When you browse on this site, cookies collect data to enhance your experience and personalize the content and advertising you see.
Visit our Privacy Policy to learn more. By continuing to use the site, you agree to this use of cookies and data.
  • în România
  • Lista ţărilor
  • Pe 7 zile
  • Temperatura apei
  • Meteo pe hartă
  • Widget-uri
  • user-avatar
    Intrare

    Meteo pe oră la Sligo

    Astăzi, 3 Aprilie, Vineri

    Timp Temperatura Precipitaţii Vânt Presiune Umiditate
    00:00 +5°C° 0 mm 3 m/s 760 mmHg 87%
    01:00 +4°C° 0 mm 3 m/s 760 mmHg 88%
    02:00 +4°C° 0 mm 3 m/s 759 mmHg 89%
    03:00 +4°C° 0 mm 3 m/s 759 mmHg 89%
    04:00 +5°C° 0 mm 3 m/s 759 mmHg 90%
    05:00 +4°C° 0 mm 3 m/s 759 mmHg 92%
    06:00 +5°C° 0 mm 3 m/s 759 mmHg 90%
    07:00 +7°C° 0 mm 3 m/s 759 mmHg 87%
    08:00 +8°C° 0 mm 3 m/s 759 mmHg 84%
    09:00 +9°C° 0.2 mm 3 m/s 759 mmHg 82%
    10:00 +9°C° 0.2 mm 3 m/s 759 mmHg 79%
    11:00 +10°C° 0 mm 4 m/s 759 mmHg 78%
    12:00 +10°C° 0.3 mm 4 m/s 759 mmHg 79%
    13:00 +10°C° 0.3 mm 4 m/s 759 mmHg 79%
    14:00 +10°C° 0.3 mm 4 m/s 759 mmHg 80%
    15:00 +10°C° 0.2 mm 4 m/s 758 mmHg 82%
    16:00 +8°C° 0.2 mm 4 m/s 758 mmHg 84%
    17:00 +9°C° 0.2 mm 3 m/s 758 mmHg 85%
    18:00 +8°C° 0 mm 3 m/s 758 mmHg 88%
    19:00 +7°C° 0 mm 3 m/s 758 mmHg 90%
    20:00 +4°C° 0 mm 3 m/s 758 mmHg 93%
    21:00 +4°C° 0 mm 3 m/s 758 mmHg 92%
    22:00 +4°C° 0 mm 3 m/s 758 mmHg 92%
    23:00 +4°C° 0 mm 3 m/s 758 mmHg 92%

    Mâine, 4 Aprilie, Sâmbătă

    Timp Temperatura Precipitaţii Vânt Presiune Umiditate
    00:00 +4°C° 0 mm 3 m/s 758 mmHg 92%
    01:00 +4°C° 0 mm 3 m/s 758 mmHg 92%
    02:00 +4°C° 0 mm 3 m/s 758 mmHg 92%
    03:00 +4°C° 0 mm 3 m/s 757 mmHg 91%
    04:00 +4°C° 0 mm 3 m/s 757 mmHg 90%
    05:00 +4°C° 0 mm 3 m/s 757 mmHg 89%
    06:00 +4°C° 0 mm 4 m/s 757 mmHg 86%
    07:00 +5°C° 0 mm 5 m/s 756 mmHg 83%
    08:00 +6°C° 0 mm 5 m/s 756 mmHg 80%
    09:00 +7°C° 0 mm 5 m/s 756 mmHg 77%
    10:00 +8°C° 0 mm 6 m/s 756 mmHg 73%
    11:00 +9°C° 0 mm 6 m/s 756 mmHg 69%
    12:00 +9°C° 0 mm 6 m/s 755 mmHg 70%
    13:00 +9°C° 0 mm 7 m/s 755 mmHg 70%
    14:00 +9°C° 0 mm 7 m/s 754 mmHg 71%
    15:00 +9°C° 0 mm 7 m/s 754 mmHg 73%
    16:00 +9°C° 0 mm 7 m/s 753 mmHg 74%
    17:00 +9°C° 0 mm 7 m/s 752 mmHg 76%
    18:00 +9°C° 0 mm 7 m/s 752 mmHg 78%
    19:00 +9°C° 0 mm 8 m/s 752 mmHg 80%
    20:00 +9°C° 0 mm 8 m/s 752 mmHg 82%
    21:00 +7°C° 0 mm 8 m/s 751 mmHg 83%
    22:00 +7°C° 0 mm 8 m/s 751 mmHg 84%
    23:00 +7°C° 0 mm 8 m/s 751 mmHg 85%

    Poimâine, 5 Aprilie, Duminică

    Timp Temperatura Precipitaţii Vânt Presiune Umiditate
    00:00 +7°C° 0 mm 8 m/s 750 mmHg 83%
    01:00 +8°C° 0 mm 7 m/s 749 mmHg 80%
    02:00 +8°C° 0 mm 7 m/s 749 mmHg 78%
    03:00 +7°C° 0.1 mm 8 m/s 748 mmHg 77%
    04:00 +7°C° 0.1 mm 8 m/s 747 mmHg 76%
    05:00 +7°C° 0.1 mm 8 m/s 746 mmHg 75%
    06:00 +8°C° 0.1 mm 9 m/s 745 mmHg 76%
    07:00 +8°C° 0.1 mm 10 m/s 744 mmHg 77%
    08:00 +9°C° 0.1 mm 10 m/s 744 mmHg 78%
    09:00 +9°C° 0.4 mm 10 m/s 743 mmHg 82%
    10:00 +11°C° 0.4 mm 10 m/s 743 mmHg 86%
    11:00 +11°C° 0.4 mm 10 m/s 742 mmHg 90%
    12:00 +11°C° 0.1 mm 10 m/s 742 mmHg 90%
    13:00 +11°C° 0.1 mm 10 m/s 741 mmHg 89%
    14:00 +12°C° 0.1 mm 10 m/s 740 mmHg 89%
    15:00 +11°C° 1 mm 9 m/s 740 mmHg 90%
    16:00 +11°C° 1 mm 9 m/s 740 mmHg 92%
    17:00 +10°C° 1 mm 8 m/s 740 mmHg 93%
    18:00 +10°C° 1.7 mm 7 m/s 740 mmHg 93%
    19:00 +9°C° 1.7 mm 7 m/s 740 mmHg 92%
    20:00 +8°C° 1.7 mm 7 m/s 740 mmHg 92%
    21:00 +8°C° 0.3 mm 6 m/s 741 mmHg 92%
    22:00 +7°C° 0.3 mm 6 m/s 742 mmHg 92%
    23:00 +7°C° 0.3 mm 6 m/s 743 mmHg 91%

    6 Aprilie, Luni

    Timp Temperatura Precipitaţii Vânt Presiune Umiditate
    00:00 +5°C° 0 mm 6 m/s 744 mmHg 91%
    01:00 +4°C° 0 mm 6 m/s 745 mmHg 91%
    02:00 +4°C° 0 mm 6 m/s 746 mmHg 91%
    03:00 +3°C° 0.1 mm 6 m/s 747 mmHg 90%
    04:00 +3°C° 0.1 mm 5 m/s 749 mmHg 90%
    05:00 +3°C° 0.1 mm 5 m/s 750 mmHg 90%
    06:00 +5°C° 0.1 mm 5 m/s 751 mmHg 86%
    07:00 +5°C° 0.1 mm 6 m/s 752 mmHg 81%
    08:00 +5°C° 0.1 mm 6 m/s 754 mmHg 77%
    09:00 +7°C° 0.1 mm 6 m/s 755 mmHg 71%
    10:00 +8°C° 0.1 mm 6 m/s 756 mmHg 65%
    11:00 +8°C° 0.1 mm 6 m/s 758 mmHg 58%
    12:00 +8°C° 0 mm 6 m/s 759 mmHg 58%
    13:00 +8°C° 0 mm 6 m/s 760 mmHg 57%
    14:00 +9°C° 0 mm 6 m/s 761 mmHg 56%
    15:00 +8°C° 0 mm 5 m/s 761 mmHg 60%
    16:00 +8°C° 0 mm 4 m/s 762 mmHg 63%
    17:00 +7°C° 0 mm 4 m/s 763 mmHg 67%
    18:00 +6°C° 0 mm 4 m/s 763 mmHg 72%
    19:00 +4°C° 0 mm 3 m/s 764 mmHg 78%
    20:00 +3°C° 0 mm 3 m/s 765 mmHg 83%
    21:00 +3°C° 0 mm 4 m/s 765 mmHg 84%
    22:00 +3°C° 0 mm 4 m/s 765 mmHg 85%
    23:00 +1°C° 0 mm 4 m/s 765 mmHg 86%

    7 Aprilie, Marţi

    Timp Temperatura Precipitaţii Vânt Presiune Umiditate
    00:00 +1°C° 0 mm 4 m/s 766 mmHg 85%
    01:00 +1°C° 0 mm 4 m/s 766 mmHg 85%
    02:00 +1°C° 0 mm 4 m/s 766 mmHg 85%
    03:00 +1°C° 0 mm 4 m/s 766 mmHg 87%
    04:00 +1°C° 0 mm 4 m/s 766 mmHg 90%
    05:00 +1°C° 0 mm 4 m/s 766 mmHg 93%
    06:00 +3°C° 0 mm 4 m/s 766 mmHg 87%
    07:00 +5°C° 0 mm 5 m/s 766 mmHg 81%
    08:00 +7°C° 0 mm 6 m/s 766 mmHg 75%
    09:00 +9°C° 0 mm 6 m/s 766 mmHg 71%
    10:00 +10°C° 0 mm 7 m/s 767 mmHg 68%
    11:00 +11°C° 0 mm 8 m/s 767 mmHg 64%
    12:00 +11°C° 0 mm 8 m/s 766 mmHg 65%
    13:00 +12°C° 0 mm 7 m/s 766 mmHg 65%
    14:00 +12°C° 0 mm 7 m/s 766 mmHg 66%
    15:00 +11°C° 0 mm 6 m/s 766 mmHg 69%
    16:00 +11°C° 0 mm 6 m/s 766 mmHg 72%
    17:00 +10°C° 0 mm 5 m/s 766 mmHg 75%
    18:00 +9°C° 0 mm 5 m/s 766 mmHg 78%
    19:00 +8°C° 0 mm 5 m/s 767 mmHg 82%
    20:00 +7°C° 0 mm 5 m/s 767 mmHg 85%
    21:00 +6°C° 0 mm 5 m/s 767 mmHg 88%
    22:00 +6°C° 0 mm 5 m/s 767 mmHg 90%
    23:00 +6°C° 0 mm 5 m/s 768 mmHg 92%

    8 Aprilie, Miercuri

    Timp Temperatura Precipitaţii Vânt Presiune Umiditate
    00:00 +5°C° 0 mm 4 m/s 767 mmHg 93%
    01:00 +5°C° 0 mm 4 m/s 767 mmHg 94%
    02:00 +4°C° 0 mm 4 m/s 767 mmHg 94%
    03:00 +4°C° 0 mm 4 m/s 767 mmHg 94%
    04:00 +4°C° 0 mm 4 m/s 766 mmHg 94%
    05:00 +3°C° 0 mm 4 m/s 766 mmHg 93%
    06:00 +5°C° 0 mm 4 m/s 766 mmHg 88%
    07:00 +6°C° 0 mm 5 m/s 766 mmHg 84%
    08:00 +8°C° 0 mm 5 m/s 766 mmHg 79%
    09:00 +10°C° 0 mm 6 m/s 765 mmHg 77%
    10:00 +11°C° 0 mm 6 m/s 765 mmHg 75%
    11:00 +14°C° 0 mm 7 m/s 765 mmHg 73%
    12:00 +14°C° 0 mm 7 m/s 764 mmHg 73%
    13:00 +15°C° 0 mm 7 m/s 764 mmHg 73%
    14:00 +15°C° 0 mm 7 m/s 763 mmHg 73%
    15:00 +14°C° 0 mm 7 m/s 763 mmHg 74%
    16:00 +14°C° 0 mm 7 m/s 762 mmHg 76%
    17:00 +12°C° 0 mm 7 m/s 762 mmHg 78%
    18:00 +12°C° 0 mm 7 m/s 762 mmHg 81%
    19:00 +11°C° 0 mm 6 m/s 761 mmHg 84%
    20:00 +11°C° 0 mm 6 m/s 761 mmHg 87%
    21:00 +10°C° 0 mm 6 m/s 761 mmHg 87%
    22:00 +10°C° 0 mm 7 m/s 761 mmHg 87%
    23:00 +10°C° 0 mm 7 m/s 760 mmHg 87%
    Arată mai mult